Welcome to the New NWS' Forecast!
Most changes are behind the scenes, but click here for differences you might notice.

Regional Weather Roundup (RWR)

Issued by Newport/Morehead City, NC (MHX)

                            
092 
ASUS42 KMHX 201225
RWRMHX
WEATHER ROUNDUP FOR EASTERN NORTH CAROLINA
NATIONAL WEATHER SERVICE NEWPORT/MOREHEAD CITY NC
800 AM EDT MON AUG 20 2018

NOTE: "FAIR" INDICATES FEW OR NO CLOUDS BELOW 12,000 FEET
WITH NO SIGNIFICANT WEATHER AND/OR OBSTRUCTIONS TO VISIBILITY

NCZ015>017-031-032-045>047-102-103-201300-
NORTH COAST
  
CITY           SKY/WX    TMP DP  RH WIND       PRES   REMARKS
EDENTON        FAIR      78  74  87 CALM      30.04S                  
ELIZABETH CITY PTSUNNY   78  75  90 NE21G29   30.04R                  
KITTY HAWK     PTSUNNY   75  72  88 CALM      30.03R                  
MANTEO         CLOUDY    74  71  90 NW7       30.05R                  

$$

NCZ045>047-081-094-103-104-201300-
CENTRAL COAST
  
CITY           SKY/WX    TMP DP  RH WIND       PRES   REMARKS
FRISCO         LGT RAIN  77  74  90 S6        30.05R FOG              

$$

NCZ095-097-098-100-101-201300-
SOUTHERN COAST
  
CITY           SKY/WX    TMP DP  RH WIND       PRES   REMARKS
BEAUFORT       FAIR      76  75  97 S3        30.03S                  
CEDAR ISLAND   NOT AVBL                                               
JACKSONVILLE   PTSUNNY   77  73  87 S3        30.03R                  
PINEY ISLAND   NOT AVBL                                               
WILMINGTON     FAIR      78  70  76 SW8       30.05R                  


$$

NCZ011>013-027>030-043-044-078>080-089-090>093-098-201300-
COASTAL PLAIN
  
CITY           SKY/WX    TMP DP  RH WIND       PRES   REMARKS
AHOSKIE        RAIN      74  74 100 CALM      30.04R                  
CLINTON        FAIR      76  76 100 SW3       30.03S                  
ELIZABETHTOWN  FAIR      76  74  92 SW5       30.05R                  
GOLDSBORO        N/A     75  73  95 CALM      30.01R                  
GREENVILLE     FAIR      73  72  94 CALM      30.04S                  
HAVELOCK       FAIR      75  75 100 SW5       30.04S                  
KENANSVILLE    FAIR      75  73  94 CALM      30.03R                  
KINSTON        PTSUNNY   73  73 100 CALM      30.04R                  
NEW BERN       FAIR      71  71 100 N3        30.06R                  
RICHLANDS      CLOUDY    75  73  93 S3        30.05R                  
ROCKY MOUNT    FAIR      72  70  93 N6        30.02S                  
WASHINGTON     FAIR      72  71  96 CALM      30.05R                  
WHITEVILLE     FAIR      77  72  84 CALM      30.05R                  

$$

AMZ130-135-150-152-154-156-158-170-250-252-270-ANZ085-086-088-633-658-670-201300-
MARINE OBSERVATIONS
  
STATION/POSITION TIME  TEMP    WIND        PRES    WAVE   SWELL
                       AIR SEA DIR/SP/G            HT/PER HT/PER
                 (UTC) (F)     (DEG/KT/KT) (MB)    (FT/S) (FT/S)
CHESAPEAKE LIGHT NOT AVBL
64 E VA BEACH    1150   74 81  150/ 14/ 16 1017.5    4/ 6   2/ 7
DUCK             1200   75 75   CALM  /  2 1016.9
2 E DUCK         NOT AVBL
OREGON INLET     1148   77 81  240/  8/  9 1016.8
13E OREGON INLT  1148      73                N/A     2/ 7   2/ 7
HATTERAS CG      1200   75 79  150/  6/  7 1017.0
DIAMOND BUOY     1200   79 81  240/  8/ 16 1017.8
CAPE LOOKOUT     1200          240/  8/ 11 1017.5
BEAUFORT LAB     1148   77 82  180/  4/  5 1017.3
30 SE NEW RVR IN 1208   82 82  240/ 12/ 16 1017.6
30 SE NEW RVR IN NOT AVBL
27 SE WRIGHTSVLE 1208   80 81  250/ 14/ 23 1017.7
5 SE WRIGHTSVLE  1208   79 79  250/ 10/ 14 1016.8
225 S CAPE HAT   1210      83  190/ 12/ 14 1019.9
41 SE CHARLESTON 1200   82 83  260/ 10/ 12 1018.3

$$